テナグラ彗星

415P/Tenagra (2021)

English version
Home page
Updated on July 10, 2021

---------------------------------------------------------------------

・ プロフィール

符号 415P/2020 Y4
検出日 2020年12月25日、2021年1月13日
検出光度 21.1等、19.7等
検出者 Pan-STARRS 2 telescope (Haleakala), E. Schwab (Egelsbach, Germany)

・ 写真集

・ 軌道要素

Epoch 2021 Mar. 7.0 TT = JDT 2459280.5                                          
T 2021 Feb. 15.45556 TT                                 Rudenko                 
q   3.3140616            (2000.0)            P               Q                  
n   0.11802273     Peri.  346.31183     -0.84687469     -0.50124714             
a   4.1161602      Node   160.29407     +0.52390266     -0.84371444             
e   0.1948657      Incl.   31.79009     +0.09126473     +0.19208655             
P   8.35                                                                        
From 80 observations 2013 Feb. 16-2021 Jan. 14, mean residual 0".6.             

・ 光度変化

        m1 = 12.0 + 5 logΔ + 10.0 log r

---------------------------------------------------------------------

軌道要素はM.P.E.C. 2021-B17に掲載されたものです。
光度グラフはComet for Windowsで作成したものです。

---------------------------------------------------------------------

Copyright(C) Seiichi Yoshida (comet@aerith.net). All rights reserved.